Location: Kershaw
(34.5481°N, 80.5823°W)
Time: 10:50:28
(UTC+00:00)

Hubble Space Telescope - Visible Passes

Search period start: 09 August 2022 00:00
Search period end: 19 August 2022 00:00
Orbit: 532 x 535 km, 28.5° (Epoch: 08 August)

Date Brightness Start Highest point End Pass type
(mag) Time Alt. Az. Time Alt. Az. Time Alt. Az.
09 Aug 1.5 01:55:05 10° WSW 01:58:43 35° S 01:58:43 35° S visible
10 Aug 1.5 01:42:59 10° WSW 01:46:46 35° S 01:47:20 33° SSE visible
11 Aug 1.6 01:30:55 10° WSW 01:34:40 34° S 01:35:54 28° SSE visible
12 Aug 1.7 01:18:52 10° WSW 01:22:35 33° S 01:24:25 22° SE visible
13 Aug 1.8 01:06:50 10° WSW 01:10:30 31° S 01:12:54 17° SE visible
14 Aug 2.0 00:54:48 10° WSW 00:58:23 29° S 01:01:24 13° SE visible
15 Aug 2.2 00:42:48 10° WSW 00:46:16 26° SSW 00:49:45 10° SE visible
16 Aug 2.4 00:30:49 10° WSW 00:34:09 24° SSW 00:37:29 10° SE visible
